Time,TemperatureF,DewpointF,PressureIn,WindDirection,WindDirectionDegrees,WindSpeedMPH,WindSpeedGustMPH,Humidity,HourlyPrecipIn,Conditions,Clouds,dailyrainin,SoftwareType,DateUTC
2013-03-16 00:02:00,41.0,27.0,-100.00,SW,233,15.0,21.0,58,0.00,,,-99.99,,2013-03-16 06:02:00,
2013-03-16 00:12:00,41.0,27.0,-100.00,SW,226,16.0,23.0,56,0.00,,,-99.99,,2013-03-16 06:12:00,
2013-03-16 00:22:00,41.0,25.0,-100.00,SSW,193,17.0,23.0,52,0.00,,,-99.99,,2013-03-16 06:22:00,
2013-03-16 00:32:00,41.0,24.0,-100.00,SSW,193,15.0,22.0,50,0.00,,,-99.99,,2013-03-16 06:32:00,
2013-03-16 00:42:00,42.0,22.0,-100.00,SSW,205,15.0,24.0,45,0.00,,,-99.99,,2013-03-16 06:42:00,
2013-03-16 00:52:00,42.0,21.0,-100.00,SSW,206,17.0,23.0,43,0.00,,,-99.99,,2013-03-16 06:52:00,
2013-03-16 01:02:00,42.0,21.0,-100.00,SSW,205,17.0,28.0,43,0.00,,,-99.99,,2013-03-16 07:02:00,
2013-03-16 01:12:00,42.0,22.0,-100.00,SSW,208,16.0,22.0,44,0.00,,,-99.99,,2013-03-16 07:12:00,
2013-03-16 01:22:00,42.0,22.0,-100.00,SW,216,16.0,23.0,44,0.00,,,-99.99,,2013-03-16 07:22:00,
2013-03-16 01:32:00,42.0,21.0,-100.00,SW,215,17.0,25.0,43,0.00,,,-99.99,,2013-03-16 07:32:00,
2013-03-16 01:42:00,42.0,21.0,-100.00,SSW,212,22.0,30.0,43,0.00,,,-99.99,,2013-03-16 07:42:00,
2013-03-16 01:52:00,41.0,21.0,-100.00,SSW,212,20.0,26.0,44,0.00,,,-99.99,,2013-03-16 07:52:00,
2013-03-16 02:02:00,41.0,21.0,-100.00,SSW,210,19.0,25.0,43,0.00,,,-99.99,,2013-03-16 08:02:00,
2013-03-16 02:12:00,41.0,20.0,-100.00,SSW,210,19.0,25.0,43,0.00,,,-99.99,,2013-03-16 08:12:00,
2013-03-16 02:23:00,41.0,20.0,-100.00,SW,217,17.0,24.0,43,0.00,,,-99.99,,2013-03-16 08:23:00,
2013-03-16 02:32:00,41.0,20.0,-100.00,SSW,213,17.0,24.0,42,0.00,,,-99.99,,2013-03-16 08:32:00,
2013-03-16 02:42:00,41.0,20.0,-100.00,SSW,212,16.0,22.0,43,0.00,,,-99.99,,2013-03-16 08:42:00,
2013-03-16 02:52:00,41.0,19.0,-100.00,SSW,208,15.0,19.0,41,0.00,,,-99.99,,2013-03-16 08:52:00,
2013-03-16 03:01:00,41.0,19.0,-100.00,SSW,212,13.0,20.0,41,0.00,,,-99.99,,2013-03-16 09:01:00,
2013-03-16 03:12:00,41.0,19.0,-100.00,SSW,213,12.0,19.0,41,0.00,,,-99.99,,2013-03-16 09:12:00,
2013-03-16 03:22:00,35.0,23.0,-100.00,NW,312,6.0,9.0,60,0.00,,,-99.99,,2013-03-16 09:22:00,
2013-03-16 03:32:00,33.0,23.0,-100.00,NW,320,6.0,9.0,66,0.00,,,-99.99,,2013-03-16 09:32:00,
2013-03-16 03:42:00,33.0,24.0,-100.00,NW,320,6.0,9.0,69,0.00,,,-99.99,,2013-03-16 09:42:00,
2013-03-16 03:52:00,33.0,23.0,-100.00,NW,320,4.0,7.0,66,0.00,,,-99.99,,2013-03-16 09:52:00,
2013-03-16 04:03:00,32.0,23.0,-100.00,North,0,4.0,7.0,69,0.00,,,-99.99,,2013-03-16 10:03:00,
2013-03-16 04:12:00,32.0,23.0,-100.00,NE,38,6.0,7.0,70,0.00,,,-99.99,,2013-03-16 10:12:00,
2013-03-16 04:22:00,32.0,23.0,-100.00,NE,48,6.0,7.0,68,0.00,,,-99.99,,2013-03-16 10:22:00,
2013-03-16 04:32:00,31.0,23.0,-100.00,NNE,31,7.0,11.0,72,0.00,,,-99.99,,2013-03-16 10:32:00,
2013-03-16 04:42:00,29.0,24.0,-100.00,NE,35,9.0,12.0,81,0.00,,,-99.99,,2013-03-16 10:42:00,
2013-03-16 04:52:00,28.0,24.0,-100.00,NE,38,9.0,12.0,84,0.00,,,-99.99,,2013-03-16 10:52:00,
2013-03-16 05:03:00,28.0,24.0,-100.00,NE,56,6.0,9.0,85,0.00,,,-99.99,,2013-03-16 11:03:00,
2013-03-16 05:12:00,28.0,24.0,-100.00,ENE,64,7.0,11.0,85,0.00,,,-99.99,,2013-03-16 11:12:00,
2013-03-16 05:22:00,28.0,24.0,-100.00,East,85,6.0,10.0,86,0.00,,,-99.99,,2013-03-16 11:22:00,
2013-03-16 05:32:00,28.0,24.0,-100.00,ESE,119,7.0,11.0,85,0.00,,,-99.99,,2013-03-16 11:32:00,
2013-03-16 05:42:00,28.0,24.0,-100.00,ESE,113,4.0,7.0,85,0.00,,,-99.99,,2013-03-16 11:42:00,
2013-03-16 05:52:00,28.0,24.0,-100.00,ESE,116,4.0,7.0,85,0.00,,,-99.99,,2013-03-16 11:52:00,
2013-03-16 06:02:00,28.0,24.0,-100.00,SE,140,3.0,6.0,84,0.00,,,-99.99,,2013-03-16 12:02:00,
2013-03-16 06:12:00,28.0,24.0,-100.00,SSE,147,3.0,4.0,84,0.00,,,-99.99,,2013-03-16 12:12:00,
2013-03-16 06:22:00,28.0,24.0,-100.00,South,176,2.0,4.0,83,0.00,,,-99.99,,2013-03-16 12:22:00,
2013-03-16 06:32:00,28.0,24.0,-100.00,SE,144,3.0,7.0,85,0.00,,,-99.99,,2013-03-16 12:32:00,
2013-03-16 06:42:00,29.0,24.0,-100.00,South,169,3.0,6.0,82,0.00,,,-99.99,,2013-03-16 12:42:00,
2013-03-16 06:52:00,28.0,24.0,-100.00,South,191,3.0,6.0,84,0.00,,,-99.99,,2013-03-16 12:52:00,
2013-03-16 07:02:00,30.0,23.0,-100.00,SSE,164,6.0,10.0,73,0.00,,,-99.99,,2013-03-16 13:02:00,
2013-03-16 07:12:00,33.0,23.0,-100.00,SSE,152,6.0,13.0,66,0.00,,,-99.99,,2013-03-16 13:12:00,
2013-03-16 07:22:00,36.0,20.0,-100.00,ESE,120,7.0,12.0,53,0.00,,,-99.99,,2013-03-16 13:22:00,
2013-03-16 07:32:00,35.0,20.0,-100.00,ESE,119,8.0,14.0,54,0.00,,,-99.99,,2013-03-16 13:32:00,
2013-03-16 07:42:00,35.0,21.0,-100.00,ESE,109,9.0,17.0,56,0.00,,,-99.99,,2013-03-16 13:42:00,
2013-03-16 07:52:00,31.0,22.0,-100.00,NE,42,5.0,11.0,69,0.00,,,-99.99,,2013-03-16 13:52:00,
2013-03-16 08:02:00,34.0,23.0,-100.00,NNE,13,12.0,24.0,64,0.00,,,-99.99,,2013-03-16 14:02:00,
2013-03-16 08:12:00,34.0,23.0,-100.00,NNE,13,17.0,24.0,65,0.00,,,-99.99,,2013-03-16 14:12:00,
2013-03-16 08:22:00,33.0,24.0,-100.00,NNE,13,14.0,21.0,72,0.00,,,-99.99,,2013-03-16 14:22:00,
2013-03-16 08:32:00,33.0,24.0,-100.00,NNE,13,14.0,18.0,70,0.00,,,-99.99,,2013-03-16 14:32:00,
2013-03-16 08:42:00,34.0,25.0,-100.00,NNE,13,14.0,20.0,68,0.00,,,-99.99,,2013-03-16 14:42:00,
2013-03-16 08:52:00,36.0,24.0,-100.00,NNE,13,12.0,18.0,64,0.00,,,-99.99,,2013-03-16 14:52:00,
2013-03-16 09:02:00,37.0,25.0,-100.00,NNE,13,11.0,20.0,63,0.00,,,-99.99,,2013-03-16 15:02:00,
2013-03-16 09:12:00,37.0,25.0,-100.00,NNE,13,8.0,17.0,61,0.00,,,-99.99,,2013-03-16 15:12:00,
2013-03-16 09:22:00,38.0,25.0,-100.00,NNE,13,6.0,13.0,59,0.00,,,-99.99,,2013-03-16 15:22:00,
2013-03-16 09:33:00,40.0,22.0,-100.00,NW,309,4.0,12.0,48,0.00,,,-99.99,,2013-03-16 15:33:00,
2013-03-16 09:43:00,42.0,21.0,-100.00,WSW,254,13.0,26.0,43,0.00,,,-99.99,,2013-03-16 15:43:00,
2013-03-16 09:52:00,42.0,19.0,-100.00,SW,224,18.0,26.0,40,0.00,,,-99.99,,2013-03-16 15:52:00,
2013-03-16 10:03:00,42.0,19.0,-100.00,SW,219,19.0,30.0,39,0.00,,,-99.99,,2013-03-16 16:03:00,
2013-03-16 10:12:00,42.0,18.0,-100.00,SW,219,19.0,33.0,37,0.00,,,-99.99,,2013-03-16 16:12:00,
2013-03-16 10:22:00,43.0,18.0,-100.00,SW,224,22.0,30.0,36,0.00,,,-99.99,,2013-03-16 16:22:00,
2013-03-16 10:33:00,44.0,18.0,-100.00,SW,223,21.0,29.0,35,0.00,,,-99.99,,2013-03-16 16:33:00,
2013-03-16 10:42:00,44.0,18.0,-100.00,SW,223,24.0,32.0,35,0.00,,,-99.99,,2013-03-16 16:42:00,
2013-03-16 10:52:00,44.0,19.0,-100.00,SW,234,23.0,34.0,36,0.00,,,-99.99,,2013-03-16 16:52:00,
2013-03-16 11:03:00,44.0,17.0,-100.00,SW,233,27.0,37.0,34,0.00,,,-99.99,,2013-03-16 17:03:00,
2013-03-16 11:12:00,44.0,19.0,-100.00,SW,233,30.0,43.0,37,0.00,,,-99.99,,2013-03-16 17:12:00,
2013-03-16 11:22:00,44.0,21.0,-100.00,SW,232,32.0,41.0,40,0.00,,,-99.99,,2013-03-16 17:22:00,
2013-03-16 11:32:00,44.0,21.0,-100.00,SW,227,29.0,37.0,40,0.00,,,-99.99,,2013-03-16 17:32:00,
2013-03-16 11:42:00,42.0,23.0,-100.00,SW,229,34.0,43.0,46,0.00,,,-99.99,,2013-03-16 17:42:00,
2013-03-16 11:52:00,42.0,24.0,-100.00,SW,233,31.0,40.0,50,0.00,,,-99.99,,2013-03-16 17:52:00,
2013-03-16 12:02:00,38.0,29.0,-100.00,SW,217,32.0,43.0,68,0.01,,,-99.99,,2013-03-16 18:02:00,
2013-03-16 12:13:00,39.0,28.0,-100.00,SSW,209,30.0,41.0,63,0.00,,,-99.99,,2013-03-16 18:13:00,
2013-03-16 12:22:00,40.0,26.0,-100.00,SSW,209,32.0,44.0,58,0.00,,,-99.99,,2013-03-16 18:22:00,
2013-03-16 12:33:00,39.0,27.0,-100.00,SSW,205,33.0,44.0,61,0.00,,,-99.99,,2013-03-16 18:33:00,
2013-03-16 12:42:00,42.0,25.0,-100.00,SSW,208,32.0,42.0,51,0.00,,,-99.99,,2013-03-16 18:42:00,
2013-03-16 12:52:00,43.0,24.0,-100.00,SSW,213,32.0,41.0,47,0.00,,,-99.99,,2013-03-16 18:52:00,
2013-03-16 13:02:00,44.0,24.0,-100.00,SSW,212,31.0,45.0,46,0.00,,,-99.99,,2013-03-16 19:02:00,
2013-03-16 13:12:00,44.0,23.0,-100.00,SSW,212,31.0,40.0,44,0.00,,,-99.99,,2013-03-16 19:12:00,
2013-03-16 13:22:00,43.0,22.0,-100.00,SSW,213,29.0,40.0,42,0.00,,,-99.99,,2013-03-16 19:22:00,
2013-03-16 13:32:00,44.0,20.0,-100.00,SW,219,26.0,40.0,38,0.00,,,-99.99,,2013-03-16 19:32:00,
2013-03-16 13:42:00,45.0,22.0,-100.00,SW,222,30.0,42.0,40,0.00,,,-99.99,,2013-03-16 19:42:00,
2013-03-16 13:52:00,44.0,23.0,-100.00,SW,227,29.0,39.0,43,0.00,,,-99.99,,2013-03-16 19:52:00,
2013-03-16 14:02:00,45.0,23.0,-100.00,SW,224,26.0,35.0,41,0.00,,,-99.99,,2013-03-16 20:02:00,
2013-03-16 14:12:00,45.0,20.0,-100.00,SW,226,27.0,41.0,37,0.00,,,-99.99,,2013-03-16 20:12:00,
2013-03-16 14:22:00,45.0,19.0,-100.00,SW,233,30.0,44.0,35,0.00,,,-99.99,,2013-03-16 20:22:00,
2013-03-16 14:32:00,44.0,17.0,-100.00,SW,229,31.0,42.0,32,0.00,,,-99.99,,2013-03-16 20:32:00,
2013-03-16 14:42:00,45.0,15.0,-100.00,SW,234,29.0,42.0,29,0.00,,,-99.99,,2013-03-16 20:42:00,
2013-03-16 14:52:00,45.0,15.0,-100.00,SW,234,30.0,40.0,29,0.00,,,-99.99,,2013-03-16 20:52:00,
2013-03-16 15:02:00,45.0,16.0,-100.00,SW,236,32.0,41.0,31,0.00,,,-99.99,,2013-03-16 21:02:00,
2013-03-16 15:12:00,45.0,15.0,-100.00,SW,234,32.0,41.0,29,0.00,,,-99.99,,2013-03-16 21:12:00,
2013-03-16 15:22:00,46.0,14.0,-100.00,SW,232,30.0,43.0,27,0.00,,,-99.99,,2013-03-16 21:22:00,
2013-03-16 15:32:00,46.0,12.0,-100.00,SW,232,31.0,44.0,25,0.00,,,-99.99,,2013-03-16 21:32:00,
2013-03-16 15:43:00,45.0,12.0,-100.00,SW,234,29.0,39.0,26,0.00,,,-99.99,,2013-03-16 21:43:00,
2013-03-16 15:52:00,45.0,11.0,-100.00,WSW,237,32.0,43.0,24,0.00,,,-99.99,,2013-03-16 21:52:00,
2013-03-16 16:03:00,45.0,8.0,-100.00,SW,232,30.0,42.0,21,0.00,,,-99.99,,2013-03-16 22:03:00,
2013-03-16 16:12:00,46.0,9.0,-100.00,SW,232,30.0,42.0,22,0.00,,,-99.99,,2013-03-16 22:12:00,
2013-03-16 16:22:00,46.0,7.0,-100.00,SW,232,29.0,40.0,20,0.00,,,-99.99,,2013-03-16 22:22:00,
2013-03-16 16:33:00,46.0,7.0,-100.00,SW,220,29.0,39.0,20,0.00,,,-99.99,,2013-03-16 22:33:00,
2013-03-16 16:42:00,45.0,6.0,-100.00,SW,222,30.0,42.0,20,0.00,,,-99.99,,2013-03-16 22:42:00,
2013-03-16 16:52:00,46.0,8.0,-100.00,SW,232,27.0,37.0,21,0.00,,,-99.99,,2013-03-16 22:52:00,
2013-03-16 17:02:00,46.0,6.0,-100.00,SW,224,28.0,37.0,19,0.00,,,-99.99,,2013-03-16 23:02:00,
2013-03-16 17:12:00,46.0,5.0,-100.00,SW,229,27.0,35.0,18,0.00,,,-99.99,,2013-03-16 23:12:00,
2013-03-16 17:22:00,45.0,4.0,-100.00,SW,230,27.0,39.0,18,0.00,,,-99.99,,2013-03-16 23:22:00,
2013-03-16 17:33:00,45.0,4.0,-100.00,SW,229,25.0,33.0,18,0.00,,,-99.99,,2013-03-16 23:33:00,
2013-03-16 17:42:00,45.0,4.0,-100.00,SW,232,27.0,35.0,18,0.00,,,-99.99,,2013-03-16 23:42:00,
2013-03-16 17:52:00,45.0,6.0,-100.00,SW,232,25.0,36.0,19,0.00,,,-99.99,,2013-03-16 23:52:00,
2013-03-16 18:01:00,45.0,6.0,-100.00,SW,230,22.0,29.0,20,0.00,,,-99.99,,2013-03-17 00:01:00,
2013-03-16 18:12:00,45.0,5.0,-100.00,SW,232,21.0,31.0,19,0.00,,,-99.99,,2013-03-17 00:12:00,
2013-03-16 18:22:00,44.0,6.0,-100.00,SW,236,22.0,30.0,20,0.00,,,-99.99,,2013-03-17 00:22:00,
2013-03-16 18:32:00,44.0,7.0,-100.00,WSW,237,22.0,29.0,21,0.00,,,-99.99,,2013-03-17 00:32:00,
2013-03-16 18:42:00,44.0,6.0,-100.00,SW,234,21.0,29.0,21,0.00,,,-99.99,,2013-03-17 00:42:00,
2013-03-16 18:52:00,44.0,5.0,-100.00,SW,229,23.0,33.0,20,0.00,,,-99.99,,2013-03-17 00:52:00,
2013-03-16 19:02:00,43.0,6.0,-100.00,SW,229,21.0,29.0,21,0.00,,,-99.99,,2013-03-17 01:02:00,
2013-03-16 19:12:00,43.0,4.0,-100.00,SW,230,21.0,29.0,19,0.00,,,-99.99,,2013-03-17 01:12:00,
2013-03-16 19:22:00,42.0,5.0,-100.00,SW,227,19.0,29.0,21,0.00,,,-99.99,,2013-03-17 01:22:00,
2013-03-16 19:32:00,41.0,4.0,-100.00,SW,222,18.0,26.0,21,0.00,,,-99.99,,2013-03-17 01:32:00,
2013-03-16 19:42:00,41.0,3.0,-100.00,SW,222,16.0,21.0,20,0.00,,,-99.99,,2013-03-17 01:42:00,
2013-03-16 19:52:00,40.0,3.0,-100.00,SW,223,15.0,22.0,20,0.00,,,-99.99,,2013-03-17 01:52:00,
2013-03-16 20:02:00,40.0,3.0,-100.00,SW,219,13.0,19.0,21,0.00,,,-99.99,,2013-03-17 02:02:00,
2013-03-16 20:12:00,39.0,4.0,-100.00,SW,219,13.0,19.0,22,0.00,,,-99.99,,2013-03-17 02:12:00,
2013-03-16 20:22:00,39.0,2.0,-100.00,SW,216,14.0,19.0,21,0.00,,,-99.99,,2013-03-17 02:22:00,
2013-03-16 20:33:00,38.0,3.0,-100.00,SW,217,12.0,17.0,22,0.00,,,-99.99,,2013-03-17 02:33:00,
2013-03-16 20:42:00,38.0,2.0,-100.00,SSW,210,11.0,16.0,22,0.00,,,-99.99,,2013-03-17 02:42:00,
2013-03-16 20:52:00,38.0,2.0,-100.00,SSW,206,12.0,15.0,22,0.00,,,-99.99,,2013-03-17 02:52:00,
2013-03-16 21:02:00,37.0,2.0,-100.00,SSW,198,12.0,15.0,22,0.00,,,-99.99,,2013-03-17 03:02:00,
2013-03-16 21:12:00,37.0,2.0,-100.00,SSW,199,12.0,15.0,22,0.00,,,-99.99,,2013-03-17 03:12:00,
2013-03-16 21:22:00,37.0,2.0,-100.00,SSW,200,12.0,15.0,22,0.00,,,-99.99,,2013-03-17 03:22:00,
2013-03-16 21:33:00,37.0,3.0,-100.00,SSW,202,11.0,15.0,24,0.00,,,-99.99,,2013-03-17 03:33:00,
2013-03-16 21:43:00,37.0,3.0,-100.00,SSW,203,11.0,14.0,23,0.00,,,-99.99,,2013-03-17 03:43:00,
2013-03-16 21:52:00,36.0,4.0,-100.00,SSW,203,11.0,14.0,24,0.00,,,-99.99,,2013-03-17 03:52:00,
2013-03-16 22:03:00,36.0,4.0,-100.00,SSW,206,11.0,15.0,26,0.00,,,-99.99,,2013-03-17 04:03:00,
2013-03-16 22:12:00,36.0,4.0,-100.00,SSW,203,12.0,16.0,25,0.00,,,-99.99,,2013-03-17 04:12:00,
2013-03-16 22:23:00,35.0,5.0,-100.00,SSW,210,11.0,14.0,27,0.00,,,-99.99,,2013-03-17 04:23:00,
2013-03-16 22:32:00,36.0,4.0,-100.00,SW,220,12.0,17.0,26,0.00,,,-99.99,,2013-03-17 04:32:00,
2013-03-16 22:42:00,36.0,5.0,-100.00,SW,220,12.0,17.0,27,0.00,,,-99.99,,2013-03-17 04:42:00,
2013-03-16 22:53:00,36.0,5.0,-100.00,SW,227,13.0,17.0,27,0.00,,,-99.99,,2013-03-17 04:53:00,
2013-03-16 23:02:00,37.0,5.0,-100.00,SW,233,15.0,20.0,26,0.00,,,-99.99,,2013-03-17 05:02:00,
2013-03-16 23:12:00,37.0,5.0,-100.00,SW,234,16.0,21.0,26,0.00,,,-99.99,,2013-03-17 05:12:00,
2013-03-16 23:22:00,35.0,6.0,-100.00,WSW,244,15.0,19.0,29,0.00,,,-99.99,,2013-03-17 05:22:00,
2013-03-16 23:32:00,35.0,6.0,-100.00,WSW,247,15.0,19.0,29,0.00,,,-99.99,,2013-03-17 05:32:00,
2013-03-16 23:42:00,35.0,6.0,-100.00,WSW,243,12.0,17.0,30,0.00,,,-99.99,,2013-03-17 05:42:00,
2013-03-16 23:52:00,34.0,6.0,-100.00,WSW,243,9.0,13.0,31,0.00,,,-99.99,,2013-03-17 05:52:00,